Weather History for Sauk Centre, MN

Change the Weather History Date:

Sunday, September 8, 2013

  Actual Average (KGHW) Record (KGHW)
Temperature  
Mean Temperature 64 °F -  
Max Temperature 69 °F 75 °F 93 °F (1959)
Min Temperature 59 °F 49 °F 33 °F (1992)
Degree Days  
Heating Degree Days 1    
Growing Degree Days 14 (Base 50)    
Moisture  
Dew Point 55 °F    
Average Humidity 82    
Maximum Humidity 100    
Minimum Humidity 60    
Precipitation  
Precipitation 0.00 in - - ()
Sea Level Pressure  
Sea Level Pressure 30.00 in    
Wind  
Wind Speed 9 mph (East)    
Max Wind Speed 14 mph    
Max Gust Speed 20 mph    
Visibility 10 miles    
Events      
Averages and records for this station are not official NWS values.
T = Trace of Precipitation, MM = Missing Value Source: NWS Daily Summary

Daily Weather History Graph

Daily Weather History Graph

Search for Another Location

Airport:

Trip Planner

Search our weather history database for the weather conditions in past years. The results will help you decide how hot, cold, wet, or windy it might be!

Date:

Astronomy

Sep. 08, 2013 Rise Set
Actual Time 6:49 AM CDT 7:43 PM CDT
Civil Twilight 6:19 AM CDT 8:14 PM CDT
Nautical Twilight 5:43 AM CDT 8:50 PM CDT
Astronomical Twilight 5:05 AM CDT 9:27 PM CDT
Moon 10:21 AM CDT (9/8) 9:05 PM CDT (9/8)
Length of Visible Light 13h 54m
Length of Day
12h 54m
Waxing Crescent, 11% of the Moon is Illuminated
Sep 8
Waxing Crescent
Sep 12
First Quarter
Sep 19
Full
Sep 26
Last Quarter
Oct 4
New

Hourly Weather History & Observations

Time (CDT) Temp. Dew Point Humidity Pressure Visibility Wind Dir Wind Speed Gust Speed Precip Events Conditions
12:05 AM 69.8 °F 60.8 °F 73% 30.07 in 10.0 mi East 10.4 mph - N/A   Clear
12:25 AM 68.0 °F 57.2 °F 68% 30.07 in 10.0 mi East 12.7 mph - N/A   Clear
12:45 AM 68.0 °F 53.6 °F 60% 30.06 in 10.0 mi East 11.5 mph 19.6 mph N/A   Clear
1:05 AM 66.2 °F 55.4 °F 68% 30.07 in 10.0 mi East 8.1 mph - N/A   Clear
1:25 AM 66.2 °F 53.6 °F 64% 30.07 in 10.0 mi East 13.8 mph 17.3 mph N/A   Clear
1:45 AM 66.2 °F 51.8 °F 60% 30.07 in 10.0 mi East 9.2 mph - N/A   Scattered Clouds
2:05 AM 64.4 °F 51.8 °F 64% 30.06 in 10.0 mi East 10.4 mph - N/A   Scattered Clouds
2:25 AM 64.4 °F 51.8 °F 64% 30.06 in 10.0 mi East 9.2 mph - N/A   Clear
2:45 AM 64.4 °F 51.8 °F 64% 30.06 in 10.0 mi East 10.4 mph - N/A   Scattered Clouds
3:05 AM 64.4 °F 51.8 °F 64% 30.05 in 10.0 mi East 11.5 mph - N/A   Scattered Clouds
3:25 AM 64.4 °F 51.8 °F 64% 30.05 in 10.0 mi East 9.2 mph - N/A   Scattered Clouds
3:45 AM 62.6 °F 51.8 °F 68% 30.04 in 10.0 mi East 11.5 mph 17.3 mph N/A   Clear
4:05 AM 62.6 °F 53.6 °F 72% 30.05 in 10.0 mi ENE 9.2 mph - N/A   Clear
4:25 AM 62.6 °F 53.6 °F 72% 30.05 in 10.0 mi East 6.9 mph - N/A   Scattered Clouds
4:45 AM 62.6 °F 53.6 °F 72% 30.05 in 10.0 mi East 8.1 mph - N/A   Scattered Clouds
5:05 AM 62.6 °F 53.6 °F 72% 30.06 in 10.0 mi East 6.9 mph - N/A   Mostly Cloudy
5:25 AM 62.6 °F 53.6 °F 72% 30.06 in 10.0 mi East 6.9 mph - N/A   Mostly Cloudy
5:45 AM 62.6 °F 53.6 °F 72% 30.05 in 10.0 mi East 8.1 mph - N/A   Mostly Cloudy
6:05 AM 62.6 °F 53.6 °F 72% 30.04 in 10.0 mi East 11.5 mph - N/A   Mostly Cloudy
6:25 AM 60.8 °F 51.8 °F 72% 30.05 in 10.0 mi East 8.1 mph - N/A   Mostly Cloudy
6:45 AM 60.8 °F 51.8 °F 72% 30.05 in 10.0 mi East 9.2 mph - N/A   Mostly Cloudy
7:05 AM 60.8 °F 51.8 °F 72% 30.05 in 10.0 mi East 9.2 mph - N/A   Mostly Cloudy
7:25 AM 60.8 °F 51.8 °F 72% 30.05 in 10.0 mi East 9.2 mph - N/A   Mostly Cloudy
7:45 AM 60.8 °F 51.8 °F 72% 30.05 in 10.0 mi East 9.2 mph - N/A   Overcast
8:05 AM 60.8 °F 51.8 °F 72% 30.05 in 10.0 mi East 9.2 mph - N/A   Overcast
8:25 AM 59.0 °F 53.6 °F 82% 30.06 in 10.0 mi ENE 5.8 mph - N/A   Overcast
8:45 AM 59.0 °F 53.6 °F 82% 30.06 in 10.0 mi East 8.1 mph - N/A   Overcast
9:05 AM 59.0 °F 53.6 °F 82% 30.05 in 10.0 mi East 6.9 mph - N/A   Overcast
9:25 AM 59.0 °F 53.6 °F 82% 30.06 in 10.0 mi ENE 5.8 mph - N/A   Overcast
9:45 AM 59.0 °F 53.6 °F 82% 30.05 in 10.0 mi ENE 9.2 mph - N/A   Overcast
10:05 AM 59.0 °F 53.6 °F 82% 30.06 in 10.0 mi ENE 9.2 mph - N/A   Overcast
10:25 AM 59.0 °F 53.6 °F 82% 30.07 in 10.0 mi East 9.2 mph - N/A   Overcast
10:45 AM 59.0 °F 55.4 °F 88% 30.07 in 10.0 mi ENE 6.9 mph - N/A   Overcast
11:05 AM 59.0 °F 55.4 °F 88% 30.06 in 10.0 mi East 6.9 mph - N/A   Mostly Cloudy
11:25 AM 59.0 °F 55.4 °F 88% 30.06 in 10.0 mi East 4.6 mph - N/A   Overcast
11:45 AM 59.0 °F 55.4 °F 88% 30.05 in 10.0 mi ENE 8.1 mph - N/A   Overcast
12:05 PM 59.0 °F 57.2 °F 94% 30.04 in 10.0 mi East 6.9 mph - N/A   Overcast
12:25 PM 59.0 °F 57.2 °F 94% 30.01 in 10.0 mi East 13.8 mph - N/A   Overcast
12:45 PM 59.0 °F 57.2 °F 94% 30.01 in 10.0 mi East 9.2 mph - N/A   Overcast
1:05 PM 59.0 °F 57.2 °F 94% 30.00 in 10.0 mi ESE 10.4 mph - N/A   Overcast
1:25 PM 60.8 °F 57.2 °F 88% 30.00 in 10.0 mi ESE 9.2 mph - N/A   Overcast
1:45 PM 60.8 °F 57.2 °F 88% 30.03 in 10.0 mi North 6.9 mph - N/A   Overcast
2:05 PM 59.0 °F 57.2 °F 94% 30.03 in 10.0 mi NNE 5.8 mph - N/A   Overcast
2:25 PM 59.0 °F 57.2 °F 94% 30.00 in 10.0 mi ENE 6.9 mph - N/A   Overcast
2:45 PM 59.0 °F 59.0 °F 100% 29.99 in 10.0 mi ENE 6.9 mph - N/A   Overcast
3:05 PM 59.0 °F 57.2 °F 94% 29.98 in 10.0 mi ENE 8.1 mph - N/A   Overcast
3:25 PM 59.0 °F 57.2 °F 94% 29.98 in 10.0 mi East 9.2 mph - N/A   Overcast
3:45 PM 59.0 °F 57.2 °F 94% 29.97 in 10.0 mi East 9.2 mph - N/A   Overcast
4:05 PM 60.8 °F 57.2 °F 88% 29.97 in 10.0 mi East 8.1 mph - N/A   Overcast
4:25 PM 60.8 °F 57.2 °F 88% 29.97 in 10.0 mi ESE 9.2 mph - N/A   Overcast
4:45 PM 60.8 °F 57.2 °F 88% 29.97 in 10.0 mi ESE 8.1 mph - N/A   Overcast
5:05 PM 60.8 °F 57.2 °F 88% 29.96 in 10.0 mi East 8.1 mph - N/A   Overcast
5:25 PM 60.8 °F 57.2 °F 88% 29.96 in 10.0 mi East 6.9 mph - N/A   Overcast
5:45 PM 60.8 °F 57.2 °F 88% 29.95 in 10.0 mi East 6.9 mph - N/A   Overcast
6:05 PM 60.8 °F 57.2 °F 88% 29.95 in 10.0 mi East 6.9 mph - N/A   Overcast
6:25 PM 60.8 °F 57.2 °F 88% 29.94 in 10.0 mi ESE 5.8 mph - N/A   Overcast
6:45 PM 60.8 °F 57.2 °F 88% 29.93 in 10.0 mi ESE 5.8 mph - N/A   Overcast
7:05 PM 60.8 °F 57.2 °F 88% 29.92 in 10.0 mi ESE 6.9 mph - N/A   Overcast
7:25 PM 60.8 °F 57.2 °F 88% 29.92 in 10.0 mi ESE 5.8 mph - N/A   Overcast
7:45 PM 60.8 °F 57.2 °F 88% 29.92 in 10.0 mi ESE 5.8 mph - N/A   Overcast
8:05 PM 60.8 °F 57.2 °F 88% 29.92 in 10.0 mi ESE 4.6 mph - N/A   Overcast
8:25 PM 60.8 °F 57.2 °F 88% 29.92 in 10.0 mi East 4.6 mph - N/A   Overcast
8:45 PM 60.8 °F 57.2 °F 88% 29.92 in 10.0 mi East 5.8 mph - N/A   Overcast
9:05 PM 60.8 °F 57.2 °F 88% 29.92 in 10.0 mi East 6.9 mph - N/A   Overcast
9:25 PM 60.8 °F 57.2 °F 88% 29.91 in 10.0 mi East 4.6 mph - N/A   Overcast
9:45 PM 60.8 °F 57.2 °F 88% 29.91 in 10.0 mi East 4.6 mph - N/A   Overcast
10:05 PM 60.8 °F 57.2 °F 88% 29.90 in 10.0 mi East 5.8 mph - N/A   Overcast
10:25 PM 60.8 °F 57.2 °F 88% 29.90 in 10.0 mi East 4.6 mph - N/A   Overcast
10:45 PM 60.8 °F 57.2 °F 88% 29.90 in 10.0 mi East 4.6 mph - N/A   Overcast
11:05 PM 60.8 °F 57.2 °F 88% 29.89 in 10.0 mi East 4.6 mph - N/A   Overcast
11:25 PM 60.8 °F 57.2 °F 88% 29.89 in 10.0 mi East 3.5 mph - N/A   Overcast
11:45 PM 60.8 °F 57.2 °F 88% 29.88 in 10.0 mi East 3.5 mph - N/A   Overcast